Notices

What's New in latest Release from April 7th, 2021:

- Updated Glossary, including Speed of Maximum Gust, and Total Hourly Precipitation

- Updated national and regional climate services offices contacts and prices information

- Addition of station inventory lists for 1981-2010, 1971-2000, and 1961-1990 Normals.

If you haven't already, please take our survey and provide feedback about our website: https://eccc.sondage-survey.ca/f/LanguageSelection.aspx?s=442ca660-fcf1-47c0-95a9-59707d6fd709

Hourly Data Report for August 23, 2015

IQALUIT CLIMATE
NUNAVUT

63°44'50.000" N
68°32'40.000" W
33.50 m
2402592
71321
XFB

Download Data

Hourly Data (August 2015)
Hourly Data Report for August 23, 2015
TIME
LST
Temp Definition
°C
Dew Point Definition
°C
Rel Hum Definition
%
Precip. Amount Definition
mm

Wind Dir Definition
10's deg

Wind Spd Definition
km/h
Visibility Definition
km
Stn Press Definition
kPa
Hmdx Definition


Wind Chill Definition


Weather Definition


00:00 1.5 0.8 95 0.0 15 11   101.20     LegendNANA
01:00 1.4 0.5 94 0.0 15 13   101.24     LegendNANA
02:00 1.5 0.5 93 0.0 16 10   101.27     LegendNANA
03:00 1.7 0.6 92 0.0 15 12   101.28     LegendNANA
04:00 1.7 0.5 92 0.0 18 5   101.34     LegendNANA
05:00 1.3 0.3 93 0.0 11 2   101.37     LegendNANA
06:00 2.1 0.9 92 0.0 15 2   101.43     LegendNANA
07:00 2.8 1.4 90 0.0 16 6   101.47     LegendNANA
08:00 3.0 1.1 87 0.0 17 12   101.50     LegendNANA
09:00 2.9 1.0 87 0.0 17 17   101.51     LegendNANA
10:00 3.1 1.4 89 0.0 16 15   101.54     LegendNANA
11:00 3.4 1.3 86 0.0 16 15   101.58     LegendNANA
12:00 3.7 1.8 87 0.0 15 17   101.63     LegendNANA
13:00 3.0 0.8 85 0.0 16 19   101.71     LegendNANA
14:00 3.3 1.0 85 0.0 15 14   101.73     LegendNANA
15:00 3.8 0.8 81 0.0 16 13   101.77     LegendNANA
16:00 3.4 1.1 85 0.0 15 12   101.81     LegendNANA
17:00 3.0 0.5 83 0.0 15 13   101.86     LegendNANA
18:00 2.6 0.0 83 0.0 14 6   101.92     LegendNANA
19:00 2.4 -0.2 83 0.0 17 8   101.98     LegendNANA
20:00 0.9 -0.7 89 0.0 25 1   102.08     LegendNANA
21:00 0.2 -1.1 91 0.0 27 7   102.09     LegendNANA
22:00 -0.3 -1.4 92 0.0 32 5   102.14   -2 LegendNANA
23:00 -0.7 -1.5 94 0.0 5 4   102.17   -2 LegendNANA

Notes on Data Quality.

Legend

  • E = Estimated
  • M = Missing
  • NA = Not Available*
  • [empty] = Indicates an unobserved value
Date modified: